TimeCDT,TemperatureF,Dew PointF,Humidity,Sea Level PressureIn,VisibilityMPH,Wind Direction,Wind SpeedMPH,Gust SpeedMPH,PrecipitationIn,Events,Conditions,WindDirDegrees,DateUTC
12:53 AM,71.1,50.0,47,30.03,-9999.0,SE,8.1,-,N/A,,Clear,130,2012-09-24 05:53:00
1:53 AM,71.1,51.1,49,30.01,-9999.0,ESE,10.4,-,N/A,,Clear,120,2012-09-24 06:53:00
2:53 AM,69.1,51.1,53,30.01,-9999.0,SE,8.1,-,N/A,,Clear,130,2012-09-24 07:53:00
3:53 AM,68.0,52.0,56,30.00,-9999.0,SE,9.2,-,N/A,,Clear,130,2012-09-24 08:53:00
4:53 AM,66.0,53.1,63,29.99,-9999.0,SE,6.9,-,N/A,,Clear,130,2012-09-24 09:53:00
5:53 AM,64.9,54.0,68,29.98,-9999.0,ESE,8.1,-,N/A,,Clear,120,2012-09-24 10:53:00
6:53 AM,66.0,55.9,70,29.99,-9999.0,SE,11.5,-,N/A,,Clear,130,2012-09-24 11:53:00
7:53 AM,64.0,57.0,78,30.00,-9999.0,SE,10.4,-,N/A,,Clear,130,2012-09-24 12:53:00
8:53 AM,68.0,57.9,70,30.01,-9999.0,SSE,10.4,-,N/A,,Clear,150,2012-09-24 13:53:00
9:53 AM,75.0,57.0,53,30.01,-9999.0,SSE,10.4,-,N/A,,Clear,150,2012-09-24 14:53:00
10:53 AM,79.0,55.9,45,30.01,-9999.0,North,-9999.0,-,N/A,,Unknown,0,2012-09-24 15:53:00
11:53 AM,82.9,53.1,36,29.99,10.0,South,10.4,-,N/A,,Clear,180,2012-09-24 16:53:00
12:53 PM,87.1,50.0,28,29.96,10.0,South,5.8,-,N/A,,Clear,180,2012-09-24 17:53:00
1:53 PM,89.1,44.1,21,29.91,10.0,SSE,9.2,-,N/A,,Clear,160,2012-09-24 18:53:00
2:53 PM,91.0,37.9,15,29.87,10.0,SSW,9.2,21.9,N/A,,Clear,210,2012-09-24 19:53:00
3:53 PM,91.9,35.1,13,29.83,10.0,SSW,10.4,20.7,N/A,,Clear,200,2012-09-24 20:53:00
4:53 PM,93.2,37.4,14,29.95,10.0,WSW,8.1,-,N/A,,Clear,250,2012-09-24 21:53:00
5:53 PM,93.0,37.0,14,29.80,10.0,SSW,10.4,18.4,N/A,,Clear,210,2012-09-24 22:53:00
6:53 PM,91.0,36.0,14,29.80,10.0,South,10.4,-,N/A,,Clear,190,2012-09-24 23:53:00
7:53 PM,84.9,37.9,19,29.81,10.0,SE,6.9,-,N/A,,Clear,130,2012-09-25 00:53:00
8:53 PM,81.0,41.0,24,29.81,10.0,SE,9.2,-,N/A,,Clear,130,2012-09-25 01:53:00
9:53 PM,79.0,44.1,29,29.82,10.0,SE,8.1,-,N/A,,Clear,140,2012-09-25 02:53:00
10:53 PM,78.1,50.0,37,29.82,10.0,SSE,12.7,-,N/A,,Clear,150,2012-09-25 03:53:00
11:53 PM,78.1,52.0,40,29.81,10.0,SSE,16.1,-,N/A,,Clear,150,2012-09-25 04:53:00